This is the latest recevied weather packets stored in our database for station/object AD7ZD. If no packets are shown the sender has not sent any weather packets the latest 10 day(s).
| Time | Temp. | Humidity | Pressure | Rain* | Wind** | Luminosity | Snow |
|---|---|---|---|---|---|---|---|
| 1778120711 | 23.89° C | 23% | 1016.1 hPa | 0 mm | - | 23 W/m² | - |
| 1778120407 | 23.89° C | 22% | 1015.8 hPa | 0 mm | - | 26 W/m² | - |
| 1778120103 | 23.89° C | 22% | 1015.9 hPa | 0 mm | - | 29 W/m² | - |
| 1778119800 | 24.44° C | 22% | 1015.8 hPa | 0 mm | - | 33 W/m² | - |
| 1778119497 | 23.89° C | 22% | 1015.7 hPa | 0 mm | - | 38 W/m² | - |
| 1778119193 | 24.44° C | 21% | 1015.8 hPa | 0 mm | - | 50 W/m² | - |
| 1778118892 | 24.44° C | 22% | 1015.7 hPa | 0 mm | - | 78 W/m² | - |
| 1778118589 | 24.44° C | 21% | 1015.7 hPa | 0 mm | - | 94 W/m² | - |
| 1778118285 | 24.44° C | 22% | 1015.9 hPa | 0 mm | - | 108 W/m² | - |
| 1778117981 | 25° C | 21% | 1015.7 hPa | 0 mm | - | 126 W/m² | - |
| 1778117678 | 25° C | 21% | 1015.8 hPa | 0 mm | - | 137 W/m² | - |
| 1778117375 | 24.44° C | 21% | 1016 hPa | 0 mm | - | 149 W/m² | - |
| 1778117072 | 24.44° C | 21% | 1016 hPa | 0 mm | - | 144 W/m² | - |
| 1778116769 | 24.44° C | 21% | 1015.8 hPa | 0 mm | - | 171 W/m² | - |
| 1778116466 | 25° C | 22% | 1016.2 hPa | 0 mm | - | 204 W/m² | - |
| 1778116166 | 24.44° C | 23% | 1016.1 hPa | 0 mm | - | 212 W/m² | - |
| 1778115861 | 24.44° C | 22% | 1016.2 hPa | 0 mm | - | 226 W/m² | - |
| 1778115559 | 24.44° C | 22% | 1016.1 hPa | 0 mm | - | 257 W/m² | - |
| 1778115256 | 24.44° C | 22% | 1016.2 hPa | 0 mm | - | 262 W/m² | - |
| 1778114952 | 24.44° C | 23% | 1016.2 hPa | 0 mm | - | 285 W/m² | - |
| 1778114649 | 25° C | 22% | 1015.9 hPa | 0 mm | - | 284 W/m² | - |
| 1778114346 | 24.44° C | 23% | 1016 hPa | 0 mm | - | 296 W/m² | - |
| 1778114041 | 25° C | 22% | 1016.2 hPa | 0 mm | - | 303 W/m² | - |
| 1778113737 | 24.44° C | 23% | 1016.1 hPa | 0 mm | - | 314 W/m² | - |
| 1778113433 | 24.44° C | 23% | 1016.2 hPa | 0 mm | - | 363 W/m² | - |
* Rain latest hour (hover to see other rain measurements)
** Current wind speed in m/s (hover to see current wind gust speed)